Year,Month,Day,Hour,Minute,Value (Times are PST for windspeed in km/hr)
2012,01,26,00,00,0.00
2012,01,26,00,01,1.20
2012,01,26,00,02,0.00
2012,01,26,00,03,0.00
2012,01,26,00,04,0.00
2012,01,26,00,05,0.00
2012,01,26,00,06,0.00
2012,01,26,00,07,0.00
2012,01,26,00,08,0.00
2012,01,26,00,09,0.00
2012,01,26,00,10,0.00
2012,01,26,00,11,0.10
2012,01,26,00,12,0.70
2012,01,26,00,13,0.00
2012,01,26,00,14,0.00
2012,01,26,00,15,0.00
2012,01,26,00,16,0.00
2012,01,26,00,17,0.00
2012,01,26,00,18,0.00
2012,01,26,00,19,0.00
2012,01,26,00,20,0.00
2012,01,26,00,21,0.00
2012,01,26,00,22,0.00
2012,01,26,00,23,0.00
2012,01,26,00,24,0.00
2012,01,26,00,25,0.00
2012,01,26,00,26,0.00
2012,01,26,00,27,0.00
2012,01,26,00,28,0.00
2012,01,26,00,29,0.00
2012,01,26,00,30,0.00
2012,01,26,00,31,2.60
2012,01,26,00,32,3.20
2012,01,26,00,33,1.40
2012,01,26,00,34,0.60
2012,01,26,00,35,0.00
2012,01,26,00,36,0.00
2012,01,26,00,37,0.80
2012,01,26,00,38,7.60
2012,01,26,00,39,6.60
2012,01,26,00,40,3.40
2012,01,26,00,41,6.00
2012,01,26,00,42,6.90
2012,01,26,00,43,5.40
2012,01,26,00,44,6.90
2012,01,26,00,45,3.30
2012,01,26,00,46,1.90
2012,01,26,00,47,7.80
2012,01,26,00,48,16.50
2012,01,26,00,49,7.20
2012,01,26,00,50,5.20
2012,01,26,00,51,5.10
2012,01,26,00,52,6.40
2012,01,26,00,53,16.50
2012,01,26,00,54,12.40
2012,01,26,00,55,8.60
2012,01,26,00,56,12.40
2012,01,26,00,57,7.00
2012,01,26,00,58,6.90
2012,01,26,00,59,7.00
2012,01,26,01,00,10.70
2012,01,26,01,01,2.30
2012,01,26,01,02,11.30
2012,01,26,01,03,16.00
2012,01,26,01,04,9.60
2012,01,26,01,05,6.60
2012,01,26,01,06,8.10
2012,01,26,01,07,8.10
2012,01,26,01,08,13.60
2012,01,26,01,09,11.80
2012,01,26,01,10,6.90
2012,01,26,01,11,3.00
2012,01,26,01,12,4.10
2012,01,26,01,13,21.60
2012,01,26,01,14,20.70
2012,01,26,01,15,14.80
2012,01,26,01,16,11.90
2012,01,26,01,17,11.30
2012,01,26,01,18,14.90
2012,01,26,01,19,13.60
2012,01,26,01,20,11.80
2012,01,26,01,21,21.40
2012,01,26,01,22,14.60
2012,01,26,01,23,21.30
2012,01,26,01,24,15.50
2012,01,26,01,25,23.30
2012,01,26,01,26,18.70
2012,01,26,01,27,12.00
2012,01,26,01,28,18.20
2012,01,26,01,29,5.90
2012,01,26,01,30,12.40
2012,01,26,01,31,11.80
2012,01,26,01,32,10.40
2012,01,26,01,33,15.20
2012,01,26,01,34,20.10
2012,01,26,01,35,17.10
2012,01,26,01,36,39.90
2012,01,26,01,37,17.80
2012,01,26,01,38,19.40
2012,01,26,01,39,27.40
2012,01,26,01,40,25.00
2012,01,26,01,41,20.30
2012,01,26,01,42,15.40
2012,01,26,01,43,21.70
2012,01,26,01,44,17.60
2012,01,26,01,45,14.00
2012,01,26,01,46,23.10
2012,01,26,01,47,17.10
2012,01,26,01,48,27.90
2012,01,26,01,49,21.30
2012,01,26,01,50,26.20
2012,01,26,01,51,23.10
2012,01,26,01,52,25.50
2012,01,26,01,53,26.10
2012,01,26,01,54,26.90
2012,01,26,01,55,32.10
2012,01,26,01,56,28.20
2012,01,26,01,57,26.90
2012,01,26,01,58,28.20
2012,01,26,01,59,30.30
2012,01,26,02,00,21.30
2012,01,26,02,01,19.10
2012,01,26,02,02,20.80
2012,01,26,02,03,23.10
2012,01,26,02,04,22.20
2012,01,26,02,05,23.00
2012,01,26,02,06,29.20
2012,01,26,02,07,25.00
2012,01,26,02,08,23.30
2012,01,26,02,09,28.50
2012,01,26,02,10,21.80
2012,01,26,02,11,13.60
2012,01,26,02,12,16.20
2012,01,26,02,13,21.20
2012,01,26,02,14,28.30
2012,01,26,02,15,19.70
2012,01,26,02,16,17.20
2012,01,26,02,17,20.70
2012,01,26,02,18,16.20
2012,01,26,02,19,29.60
2012,01,26,02,20,24.90
2012,01,26,02,21,21.50
2012,01,26,02,22,24.10
2012,01,26,02,23,29.50
2012,01,26,02,24,26.00
2012,01,26,02,25,21.40
2012,01,26,02,26,27.50
2012,01,26,02,27,27.90
2012,01,26,02,28,23.30
2012,01,26,02,29,23.20
2012,01,26,02,30,20.50
2012,01,26,02,31,27.30
2012,01,26,02,32,20.80
2012,01,26,02,33,21.10
2012,01,26,02,34,24.50
2012,01,26,02,35,18.10
2012,01,26,02,36,22.30
2012,01,26,02,37,15.70
2012,01,26,02,38,19.40
2012,01,26,02,39,39.10
2012,01,26,02,40,19.60
2012,01,26,02,41,21.60
2012,01,26,02,42,23.00
2012,01,26,02,43,28.30
2012,01,26,02,44,22.30
2012,01,26,02,45,19.50
2012,01,26,02,46,11.40
2012,01,26,02,47,23.30
2012,01,26,02,48,17.30
2012,01,26,02,49,20.20
2012,01,26,02,50,39.60
2012,01,26,02,51,30.60
2012,01,26,02,52,20.90
2012,01,26,02,53,16.50
2012,01,26,02,54,13.80
2012,01,26,02,55,13.20
2012,01,26,02,56,18.20
2012,01,26,02,57,15.90
2012,01,26,02,58,16.90
2012,01,26,02,59,22.10
2012,01,26,03,00,13.70
2012,01,26,03,01,16.20
2012,01,26,03,02,23.20
2012,01,26,03,03,24.90
2012,01,26,03,04,38.70
2012,01,26,03,05,24.60
2012,01,26,03,06,28.00
2012,01,26,03,07,22.60
2012,01,26,03,08,16.40
2012,01,26,03,09,25.70
2012,01,26,03,10,25.90
2012,01,26,03,11,19.80
2012,01,26,03,12,23.50
2012,01,26,03,13,26.40
2012,01,26,03,14,22.00
2012,01,26,03,15,25.30
2012,01,26,03,16,24.30
2012,01,26,03,17,19.80
2012,01,26,03,18,28.00
2012,01,26,03,19,20.90
2012,01,26,03,20,28.50
2012,01,26,03,21,24.70
2012,01,26,03,22,29.70
2012,01,26,03,23,23.50
2012,01,26,03,24,26.40
2012,01,26,03,25,25.60
2012,01,26,03,26,21.90
2012,01,26,03,27,21.30
2012,01,26,03,28,15.20
2012,01,26,03,29,19.10
2012,01,26,03,30,17.30
2012,01,26,03,31,16.80
2012,01,26,03,32,28.60
2012,01,26,03,33,16.00
2012,01,26,03,34,29.10
2012,01,26,03,35,24.60
2012,01,26,03,36,20.40
2012,01,26,03,37,22.00
2012,01,26,03,38,18.40
2012,01,26,03,39,17.80
2012,01,26,03,40,15.80
2012,01,26,03,41,18.70
2012,01,26,03,42,19.70
2012,01,26,03,43,28.00
2012,01,26,03,44,22.50
2012,01,26,03,45,23.00
2012,01,26,03,46,14.40
2012,01,26,03,47,20.80
2012,01,26,03,48,21.30
2012,01,26,03,49,20.80
2012,01,26,03,50,13.00
2012,01,26,03,51,10.40
2012,01,26,03,52,17.90
2012,01,26,03,53,9.30
2012,01,26,03,54,10.10
2012,01,26,03,55,19.80
2012,01,26,03,56,11.70
2012,01,26,03,57,20.70
2012,01,26,03,58,16.90
2012,01,26,03,59,20.10
2012,01,26,04,00,16.60
2012,01,26,04,01,13.90
2012,01,26,04,02,22.10
2012,01,26,04,03,9.90
2012,01,26,04,04,15.10
2012,01,26,04,05,8.30
2012,01,26,04,06,18.20
2012,01,26,04,07,17.00
2012,01,26,04,08,13.70
2012,01,26,04,09,12.60
2012,01,26,04,10,9.70
2012,01,26,04,11,9.50
2012,01,26,04,12,19.70
2012,01,26,04,13,10.80
2012,01,26,04,14,15.50
2012,01,26,04,15,6.30
2012,01,26,04,16,15.50
2012,01,26,04,17,15.40
2012,01,26,04,18,14.00
2012,01,26,04,19,18.80
2012,01,26,04,20,18.00
2012,01,26,04,21,13.60
2012,01,26,04,22,4.60
2012,01,26,04,23,7.20
2012,01,26,04,24,9.90
2012,01,26,04,25,8.10
2012,01,26,04,26,12.40
2012,01,26,04,27,6.90
2012,01,26,04,28,7.10
2012,01,26,04,29,10.70
2012,01,26,04,30,19.50
2012,01,26,04,31,6.10
2012,01,26,04,32,4.90
2012,01,26,04,33,17.10
2012,01,26,04,34,2.70
2012,01,26,04,35,5.80
2012,01,26,04,36,9.20
2012,01,26,04,37,7.90
2012,01,26,04,38,9.10
2012,01,26,04,39,7.70
2012,01,26,04,40,5.30
2012,01,26,04,41,8.90
2012,01,26,04,42,3.00
2012,01,26,04,43,10.30
2012,01,26,04,44,11.80
2012,01,26,04,45,8.20
2012,01,26,04,46,6.40
2012,01,26,04,47,9.90
2012,01,26,04,48,9.60
2012,01,26,04,49,4.10
2012,01,26,04,50,5.30
2012,01,26,04,51,3.20
2012,01,26,04,52,7.40
2012,01,26,04,53,2.00
2012,01,26,04,54,11.20
2012,01,26,04,55,9.40
2012,01,26,04,56,13.20
2012,01,26,04,57,9.90
2012,01,26,04,58,7.40
2012,01,26,04,59,5.90
2012,01,26,05,00,7.00
2012,01,26,05,01,6.30
2012,01,26,05,02,6.40
2012,01,26,05,03,21.50
2012,01,26,05,04,18.30
2012,01,26,05,05,11.80
2012,01,26,05,06,2.50
2012,01,26,05,07,4.70
2012,01,26,05,08,6.50
2012,01,26,05,09,4.70
2012,01,26,05,10,13.00
2012,01,26,05,11,11.40
2012,01,26,05,12,7.20
2012,01,26,05,13,13.90
2012,01,26,05,14,7.40
2012,01,26,05,15,6.80
2012,01,26,05,16,7.40
2012,01,26,05,17,5.50
2012,01,26,05,18,1.10
2012,01,26,05,19,10.40
2012,01,26,05,20,7.30
2012,01,26,05,21,3.40
2012,01,26,05,22,2.50
2012,01,26,05,23,2.80
2012,01,26,05,24,4.60
2012,01,26,05,25,6.70
2012,01,26,05,26,6.40
2012,01,26,05,27,7.00
2012,01,26,05,28,6.90
2012,01,26,05,29,6.00
2012,01,26,05,30,4.80
2012,01,26,05,31,2.50
2012,01,26,05,32,6.80
2012,01,26,05,33,3.10
2012,01,26,05,34,3.70
2012,01,26,05,35,5.00
2012,01,26,05,36,5.30
2012,01,26,05,37,8.00
2012,01,26,05,38,10.80
2012,01,26,05,39,8.20
2012,01,26,05,40,6.20
2012,01,26,05,41,7.10
2012,01,26,05,42,5.60
2012,01,26,05,43,2.20
2012,01,26,05,44,1.70
2012,01,26,05,45,4.10
2012,01,26,05,46,4.50
2012,01,26,05,47,4.30
2012,01,26,05,48,0.40
2012,01,26,05,49,0.20
2012,01,26,05,50,3.70
2012,01,26,05,51,3.50
2012,01,26,05,52,0.40
2012,01,26,05,53,1.60
2012,01,26,05,54,0.50
2012,01,26,05,55,5.10
2012,01,26,05,56,4.30
2012,01,26,05,57,3.00
2012,01,26,05,58,0.60
2012,01,26,05,59,0.00
2012,01,26,06,00,0.20
2012,01,26,06,01,0.90
2012,01,26,06,02,2.90
2012,01,26,06,03,6.50
2012,01,26,06,04,4.70
2012,01,26,06,05,3.10
2012,01,26,06,06,0.60
2012,01,26,06,07,7.50
2012,01,26,06,08,4.10
2012,01,26,06,09,3.10
2012,01,26,06,10,3.70
2012,01,26,06,11,4.90
2012,01,26,06,12,0.80
2012,01,26,06,13,2.50
2012,01,26,06,14,4.70
2012,01,26,06,15,4.90
2012,01,26,06,16,0.60
2012,01,26,06,17,0.00
2012,01,26,06,18,6.80
2012,01,26,06,19,3.30
2012,01,26,06,20,2.30
2012,01,26,06,21,0.60
2012,01,26,06,22,1.40
2012,01,26,06,23,5.80
2012,01,26,06,24,7.10
2012,01,26,06,25,3.40
2012,01,26,06,26,2.60
2012,01,26,06,27,8.50
2012,01,26,06,28,3.50
2012,01,26,06,29,8.60
2012,01,26,06,30,0.60
2012,01,26,06,31,5.00
2012,01,26,06,32,3.20
2012,01,26,06,33,5.90
2012,01,26,06,34,6.00
2012,01,26,06,35,3.60
2012,01,26,06,36,1.60
2012,01,26,06,37,1.30
2012,01,26,06,38,0.00
2012,01,26,06,39,0.00
2012,01,26,06,40,3.50
2012,01,26,06,41,6.00
2012,01,26,06,42,0.70
2012,01,26,06,43,5.10
2012,01,26,06,44,2.70
2012,01,26,06,45,3.10
2012,01,26,06,46,3.90
2012,01,26,06,47,2.40
2012,01,26,06,48,0.60
2012,01,26,06,49,1.80
2012,01,26,06,50,3.60
2012,01,26,06,51,1.80
2012,01,26,06,52,0.00
2012,01,26,06,53,1.40
2012,01,26,06,54,2.50
2012,01,26,06,55,1.90
2012,01,26,06,56,2.70
2012,01,26,06,57,3.10
2012,01,26,06,58,1.90
2012,01,26,06,59,4.90
2012,01,26,07,00,1.90
2012,01,26,07,01,0.00
2012,01,26,07,02,0.00
2012,01,26,07,03,1.70
2012,01,26,07,04,0.40
2012,01,26,07,05,0.80
2012,01,26,07,06,1.50
2012,01,26,07,07,3.70
2012,01,26,07,08,0.30
2012,01,26,07,09,0.20
2012,01,26,07,10,0.80
2012,01,26,07,11,0.50
2012,01,26,07,12,1.00
2012,01,26,07,13,2.60
2012,01,26,07,14,3.20
2012,01,26,07,15,2.80
2012,01,26,07,16,5.10
2012,01,26,07,17,0.40
2012,01,26,07,18,1.30
2012,01,26,07,19,2.00
2012,01,26,07,20,1.00
2012,01,26,07,21,1.00
2012,01,26,07,22,6.70
2012,01,26,07,23,8.20
2012,01,26,07,24,7.20
2012,01,26,07,25,4.30
2012,01,26,07,26,8.30
2012,01,26,07,27,9.70
2012,01,26,07,28,5.60
2012,01,26,07,29,5.20
2012,01,26,07,30,5.70
2012,01,26,07,31,4.20
2012,01,26,07,32,1.60
2012,01,26,07,33,5.10
2012,01,26,07,34,3.40
2012,01,26,07,35,7.20
2012,01,26,07,36,1.50
2012,01,26,07,37,1.80
2012,01,26,07,38,2.30
2012,01,26,07,39,2.30
2012,01,26,07,40,2.90
2012,01,26,07,41,1.60
2012,01,26,07,42,4.70
2012,01,26,07,43,0.30
2012,01,26,07,44,0.20
2012,01,26,07,45,0.30
2012,01,26,07,46,0.20
2012,01,26,07,47,0.20
2012,01,26,07,48,1.50
2012,01,26,07,49,4.10
2012,01,26,07,50,7.00
2012,01,26,07,51,4.50
2012,01,26,07,52,4.50
2012,01,26,07,53,1.10
2012,01,26,07,54,1.40
2012,01,26,07,55,0.80
2012,01,26,07,56,0.60
2012,01,26,07,57,0.80
2012,01,26,07,58,0.00
2012,01,26,07,59,0.00
2012,01,26,08,00,0.80
2012,01,26,08,01,1.40
2012,01,26,08,02,1.30
2012,01,26,08,03,0.70
2012,01,26,08,04,1.60
2012,01,26,08,05,5.90
2012,01,26,08,06,0.30
2012,01,26,08,07,0.10
2012,01,26,08,08,0.10
2012,01,26,08,09,6.40
2012,01,26,08,10,5.40
2012,01,26,08,11,6.50
2012,01,26,08,12,3.60
2012,01,26,08,13,3.60
2012,01,26,08,14,11.10
2012,01,26,08,15,5.30
2012,01,26,08,16,5.60
2012,01,26,08,17,7.40
2012,01,26,08,18,4.90
2012,01,26,08,19,5.80
2012,01,26,08,20,9.40
2012,01,26,08,21,6.40
2012,01,26,08,22,2.60
2012,01,26,08,23,3.40
2012,01,26,08,24,0.40
2012,01,26,08,25,4.00
2012,01,26,08,26,7.90
2012,01,26,08,27,3.70
2012,01,26,08,28,2.30
2012,01,26,08,29,7.50
2012,01,26,08,30,3.10
2012,01,26,08,31,3.20
2012,01,26,08,32,3.90
2012,01,26,08,33,2.70
2012,01,26,08,34,4.90
2012,01,26,08,35,8.00
2012,01,26,08,36,8.50
2012,01,26,08,37,7.60
2012,01,26,08,38,5.80
2012,01,26,08,39,5.00
2012,01,26,08,40,9.60
2012,01,26,08,41,4.40
2012,01,26,08,42,6.70
2012,01,26,08,43,4.00
2012,01,26,08,44,10.00
2012,01,26,08,45,5.60
2012,01,26,08,46,4.40
2012,01,26,08,47,4.20
2012,01,26,08,48,8.10
2012,01,26,08,49,5.70
2012,01,26,08,50,6.60
2012,01,26,08,51,8.10
2012,01,26,08,52,6.10
2012,01,26,08,53,9.40
2012,01,26,08,54,7.10
2012,01,26,08,55,1.30
2012,01,26,08,56,2.40
2012,01,26,08,57,3.70
2012,01,26,08,58,2.00
2012,01,26,08,59,3.00
2012,01,26,09,00,2.90
2012,01,26,09,01,2.90
2012,01,26,09,02,4.30
2012,01,26,09,03,0.60
2012,01,26,09,04,4.30
2012,01,26,09,05,3.80
2012,01,26,09,06,2.40
2012,01,26,09,07,0.60
2012,01,26,09,08,4.40
2012,01,26,09,09,4.10
2012,01,26,09,10,0.20
2012,01,26,09,11,0.00
2012,01,26,09,12,0.00
2012,01,26,09,13,0.40
2012,01,26,09,14,1.70
2012,01,26,09,15,5.00
2012,01,26,09,16,9.70
2012,01,26,09,17,1.40
2012,01,26,09,18,2.70
2012,01,26,09,19,6.90
2012,01,26,09,20,5.70
2012,01,26,09,21,5.80
2012,01,26,09,22,6.70
2012,01,26,09,23,8.80
2012,01,26,09,24,6.80
2012,01,26,09,25,3.20
2012,01,26,09,26,8.20
2012,01,26,09,27,13.00
2012,01,26,09,28,8.00
2012,01,26,09,29,4.90
2012,01,26,09,30,5.80
2012,01,26,09,31,8.60
2012,01,26,09,32,6.20
2012,01,26,09,33,10.50
2012,01,26,09,34,5.30
2012,01,26,09,35,10.40
2012,01,26,09,36,7.20
2012,01,26,09,37,4.50
2012,01,26,09,38,3.00
2012,01,26,09,39,5.70
2012,01,26,09,40,9.80
2012,01,26,09,41,14.70
2012,01,26,09,42,15.00
2012,01,26,09,43,7.90
2012,01,26,09,44,11.40
2012,01,26,09,45,9.90
2012,01,26,09,46,6.20
2012,01,26,09,47,11.30
2012,01,26,09,48,8.10
2012,01,26,09,49,6.00
2012,01,26,09,50,9.80
2012,01,26,09,51,9.70
2012,01,26,09,52,8.30
2012,01,26,09,53,13.60
2012,01,26,09,54,13.00
2012,01,26,09,55,12.90
2012,01,26,09,56,10.40
2012,01,26,09,57,11.70
2012,01,26,09,58,13.90
2012,01,26,09,59,15.10
2012,01,26,10,00,5.50
2012,01,26,10,01,3.10
2012,01,26,10,02,4.80
2012,01,26,10,03,6.20
2012,01,26,10,04,5.60
2012,01,26,10,05,7.30
2012,01,26,10,06,8.20
2012,01,26,10,07,10.10
2012,01,26,10,08,3.50
2012,01,26,10,09,8.10
2012,01,26,10,10,10.80
2012,01,26,10,11,10.70
2012,01,26,10,12,7.20
2012,01,26,10,13,4.00
2012,01,26,10,14,5.20
2012,01,26,10,15,4.40
2012,01,26,10,16,1.20
2012,01,26,10,17,5.00
2012,01,26,10,18,4.60
2012,01,26,10,19,7.50
2012,01,26,10,20,7.00
2012,01,26,10,21,3.80
2012,01,26,10,22,4.70
2012,01,26,10,23,8.20
2012,01,26,10,24,1.90
2012,01,26,10,25,5.40
2012,01,26,10,26,9.70
2012,01,26,10,27,3.40
2012,01,26,10,28,6.20
2012,01,26,10,29,4.20
2012,01,26,10,30,4.70
2012,01,26,10,31,4.60
2012,01,26,10,32,6.00
2012,01,26,10,33,0.60
2012,01,26,10,34,2.40
2012,01,26,10,35,2.60
2012,01,26,10,36,2.90
2012,01,26,10,37,13.60
2012,01,26,10,38,19.60
2012,01,26,10,39,13.20
2012,01,26,10,40,11.30
2012,01,26,10,41,11.70
2012,01,26,10,42,9.70
2012,01,26,10,43,12.90
2012,01,26,10,44,11.90
2012,01,26,10,45,5.70
2012,01,26,10,46,4.00
2012,01,26,10,47,8.10
2012,01,26,10,48,11.80
2012,01,26,10,49,6.90
2012,01,26,10,50,13.20
2012,01,26,10,51,7.80
2012,01,26,10,52,10.60
2012,01,26,10,53,13.10
2012,01,26,10,54,10.60
2012,01,26,10,55,14.00
2012,01,26,10,56,8.00
2012,01,26,10,57,15.50
2012,01,26,10,58,8.60
2012,01,26,10,59,13.70
2012,01,26,11,00,14.40
2012,01,26,11,01,14.60
2012,01,26,11,02,8.60
2012,01,26,11,03,7.10
2012,01,26,11,04,6.30
2012,01,26,11,05,4.00
2012,01,26,11,06,9.70
2012,01,26,11,07,4.60
2012,01,26,11,08,8.10
2012,01,26,11,09,6.70
2012,01,26,11,10,8.70
2012,01,26,11,11,7.50
2012,01,26,11,12,10.80
2012,01,26,11,13,8.40
2012,01,26,11,14,14.10
2012,01,26,11,15,7.60
2012,01,26,11,16,1.40
2012,01,26,11,17,7.40
2012,01,26,11,18,6.70
2012,01,26,11,19,10.50
2012,01,26,11,20,9.40
2012,01,26,11,21,22.00
2012,01,26,11,22,17.60
2012,01,26,11,23,16.50
2012,01,26,11,24,15.60
2012,01,26,11,25,15.70
2012,01,26,11,26,14.90
2012,01,26,11,27,11.60
2012,01,26,11,28,6.10
2012,01,26,11,29,12.50
2012,01,26,11,30,14.70
2012,01,26,11,31,13.10
2012,01,26,11,32,21.90
2012,01,26,11,33,15.50
2012,01,26,11,34,17.20
2012,01,26,11,35,12.90
2012,01,26,11,36,7.50
2012,01,26,11,37,8.90
2012,01,26,11,38,6.60
2012,01,26,11,39,3.30
2012,01,26,11,40,1.60
2012,01,26,11,41,1.60
2012,01,26,11,42,12.30
2012,01,26,11,43,11.40
2012,01,26,11,44,6.50
2012,01,26,11,45,6.90
2012,01,26,11,46,13.90
2012,01,26,11,47,10.60
2012,01,26,11,48,12.20
2012,01,26,11,49,7.30
2012,01,26,11,50,9.30
2012,01,26,11,51,5.10
2012,01,26,11,52,15.80
2012,01,26,11,53,9.00
2012,01,26,11,54,7.20
2012,01,26,11,55,7.40
2012,01,26,11,56,9.40
2012,01,26,11,57,14.30
2012,01,26,11,58,12.10
2012,01,26,11,59,5.90
2012,01,26,12,00,12.20
2012,01,26,12,01,12.80
2012,01,26,12,02,9.50
2012,01,26,12,03,8.80
2012,01,26,12,04,9.90
2012,01,26,12,05,8.50
2012,01,26,12,06,16.00
2012,01,26,12,07,13.80
2012,01,26,12,08,20.70
2012,01,26,12,09,8.20
2012,01,26,12,10,11.60
2012,01,26,12,11,14.60
2012,01,26,12,12,16.50
2012,01,26,12,13,18.00
2012,01,26,12,14,15.30
2012,01,26,12,15,13.80
2012,01,26,12,16,17.40
2012,01,26,12,17,22.60
2012,01,26,12,18,11.50
2012,01,26,12,19,13.00
2012,01,26,12,20,16.60
2012,01,26,12,21,11.70
2012,01,26,12,22,10.40
2012,01,26,12,23,13.50
2012,01,26,12,24,12.30
2012,01,26,12,25,15.60
2012,01,26,12,26,10.70
2012,01,26,12,27,9.70
2012,01,26,12,28,16.20
2012,01,26,12,29,11.30
2012,01,26,12,30,19.80
2012,01,26,12,31,14.70
2012,01,26,12,32,12.40
2012,01,26,12,33,11.90
2012,01,26,12,34,7.20
2012,01,26,12,35,10.80
2012,01,26,12,36,6.50
2012,01,26,12,37,15.70
2012,01,26,12,38,15.60
2012,01,26,12,39,9.80
2012,01,26,12,40,8.10
2012,01,26,12,41,4.50
2012,01,26,12,42,4.80
2012,01,26,12,43,7.20
2012,01,26,12,44,14.00
2012,01,26,12,45,12.90
2012,01,26,12,46,8.60
2012,01,26,12,47,11.40
2012,01,26,12,48,7.10
2012,01,26,12,49,6.60
2012,01,26,12,50,17.50
2012,01,26,12,51,21.60
2012,01,26,12,52,12.20
2012,01,26,12,53,17.00
2012,01,26,12,54,14.20
2012,01,26,12,55,12.70
2012,01,26,12,56,9.40
2012,01,26,12,57,13.50
2012,01,26,12,58,7.90
2012,01,26,12,59,20.20
2012,01,26,13,00,17.10
2012,01,26,13,01,10.20
2012,01,26,13,02,12.40
2012,01,26,13,03,7.70
2012,01,26,13,04,15.70
2012,01,26,13,05,12.30
2012,01,26,13,06,9.90
2012,01,26,13,07,7.30
2012,01,26,13,08,8.10
2012,01,26,13,09,12.00
2012,01,26,13,10,8.90
2012,01,26,13,11,9.70
2012,01,26,13,12,6.20
2012,01,26,13,13,3.10
2012,01,26,13,14,13.50
2012,01,26,13,15,10.20
2012,01,26,13,16,11.40
2012,01,26,13,17,12.60
2012,01,26,13,18,10.20
2012,01,26,13,19,3.50
2012,01,26,13,20,11.20
2012,01,26,13,21,7.80
2012,01,26,13,22,13.60
2012,01,26,13,23,8.60
2012,01,26,13,24,6.00
2012,01,26,13,25,8.00
2012,01,26,13,26,11.80
2012,01,26,13,27,11.30
2012,01,26,13,28,9.10
2012,01,26,13,29,7.00
2012,01,26,13,30,9.70
2012,01,26,13,31,9.60
2012,01,26,13,32,11.80
2012,01,26,13,33,8.50
2012,01,26,13,34,5.60
2012,01,26,13,35,9.50
2012,01,26,13,36,13.30
2012,01,26,13,37,14.00
2012,01,26,13,38,14.80
2012,01,26,13,39,16.10
2012,01,26,13,40,17.50
2012,01,26,13,41,12.90
2012,01,26,13,42,9.20
2012,01,26,13,43,8.30
2012,01,26,13,44,11.90
2012,01,26,13,45,13.60
2012,01,26,13,46,5.70
2012,01,26,13,47,6.20
2012,01,26,13,48,13.90
2012,01,26,13,49,15.80
2012,01,26,13,50,13.80
2012,01,26,13,51,14.20
2012,01,26,13,52,10.00
2012,01,26,13,53,13.50
2012,01,26,13,54,17.70
2012,01,26,13,55,13.90
2012,01,26,13,56,10.50
2012,01,26,13,57,6.60
2012,01,26,13,58,5.80
2012,01,26,13,59,7.50
2012,01,26,14,00,8.70
2012,01,26,14,01,13.90
2012,01,26,14,02,10.40
2012,01,26,14,03,12.20
2012,01,26,14,04,7.20
2012,01,26,14,05,14.30
2012,01,26,14,06,17.80
2012,01,26,14,07,7.00
2012,01,26,14,08,10.20
2012,01,26,14,09,13.40
2012,01,26,14,10,10.10
2012,01,26,14,11,15.80
2012,01,26,14,12,8.00
2012,01,26,14,13,8.80
2012,01,26,14,14,8.90
2012,01,26,14,15,8.30
2012,01,26,14,16,7.50
2012,01,26,14,17,8.60
2012,01,26,14,18,8.90
2012,01,26,14,19,11.60
2012,01,26,14,20,13.50
2012,01,26,14,21,12.90
2012,01,26,14,22,12.60
2012,01,26,14,23,15.80
2012,01,26,14,24,7.90
2012,01,26,14,25,7.70
2012,01,26,14,26,16.10
2012,01,26,14,27,9.70
2012,01,26,14,28,4.90
2012,01,26,14,29,9.50
2012,01,26,14,30,12.50
2012,01,26,14,31,8.40
2012,01,26,14,32,9.10
2012,01,26,14,33,9.70
2012,01,26,14,34,8.70
2012,01,26,14,35,13.80
2012,01,26,14,36,10.30
2012,01,26,14,37,6.90
2012,01,26,14,38,8.00
2012,01,26,14,39,8.20
2012,01,26,14,40,11.20
2012,01,26,14,41,13.80
2012,01,26,14,42,15.90
2012,01,26,14,43,9.70
2012,01,26,14,44,8.40
2012,01,26,14,45,6.00
2012,01,26,14,46,13.00
2012,01,26,14,47,8.20
2012,01,26,14,48,10.80
2012,01,26,14,49,12.60
2012,01,26,14,50,10.70
2012,01,26,14,51,10.30
2012,01,26,14,52,11.20
2012,01,26,14,53,9.00
2012,01,26,14,54,10.00
2012,01,26,14,55,9.90
2012,01,26,14,56,8.80
2012,01,26,14,57,5.60
2012,01,26,14,58,6.50
2012,01,26,14,59,13.20
2012,01,26,15,00,12.90
2012,01,26,15,01,6.40
2012,01,26,15,02,8.10
2012,01,26,15,03,13.60
2012,01,26,15,04,16.30
2012,01,26,15,05,12.70
2012,01,26,15,06,11.30
2012,01,26,15,07,8.80
2012,01,26,15,08,6.40
2012,01,26,15,09,12.60
2012,01,26,15,10,9.10
2012,01,26,15,11,10.40
2012,01,26,15,12,16.60
2012,01,26,15,13,9.10
2012,01,26,15,14,7.30
2012,01,26,15,15,8.10
2012,01,26,15,16,4.90
2012,01,26,15,17,11.90
2012,01,26,15,18,2.80
2012,01,26,15,19,2.00
2012,01,26,15,20,3.60
2012,01,26,15,21,14.40
2012,01,26,15,22,6.90
2012,01,26,15,23,6.90
2012,01,26,15,24,13.80
2012,01,26,15,25,4.70
2012,01,26,15,26,10.90
2012,01,26,15,27,13.60
2012,01,26,15,28,9.00
2012,01,26,15,29,12.40
2012,01,26,15,30,8.80
2012,01,26,15,31,17.30
2012,01,26,15,32,9.80
2012,01,26,15,33,8.10
2012,01,26,15,34,15.30
2012,01,26,15,35,8.60
2012,01,26,15,36,11.00
2012,01,26,15,37,7.30
2012,01,26,15,38,7.60
2012,01,26,15,39,10.90
2012,01,26,15,40,6.00
2012,01,26,15,41,11.50
2012,01,26,15,42,10.80
2012,01,26,15,43,9.70
2012,01,26,15,44,7.10
2012,01,26,15,45,8.80
2012,01,26,15,46,10.80
2012,01,26,15,47,8.00
2012,01,26,15,48,13.50
2012,01,26,15,49,10.00
2012,01,26,15,50,7.90
2012,01,26,15,51,4.90
2012,01,26,15,52,9.10
2012,01,26,15,53,7.30
2012,01,26,15,54,12.20
2012,01,26,15,55,6.00
2012,01,26,15,56,4.00
2012,01,26,15,57,6.90
2012,01,26,15,58,8.20
2012,01,26,15,59,10.60
2012,01,26,16,00,11.70
2012,01,26,16,01,4.00
2012,01,26,16,02,3.90
2012,01,26,16,03,3.90
2012,01,26,16,04,3.00
2012,01,26,16,05,3.80
2012,01,26,16,06,12.50
2012,01,26,16,07,7.50
2012,01,26,16,08,7.90
2012,01,26,16,09,6.90
2012,01,26,16,10,7.70
2012,01,26,16,11,3.80
2012,01,26,16,12,9.60
2012,01,26,16,13,7.70
2012,01,26,16,14,8.40
2012,01,26,16,15,4.70
2012,01,26,16,16,7.00
2012,01,26,16,17,7.70
2012,01,26,16,18,5.50
2012,01,26,16,19,4.70
2012,01,26,16,20,4.00
2012,01,26,16,21,4.30
2012,01,26,16,22,11.30
2012,01,26,16,23,11.30
2012,01,26,16,24,10.20
2012,01,26,16,25,6.80
2012,01,26,16,26,4.10
2012,01,26,16,27,6.30
2012,01,26,16,28,6.10
2012,01,26,16,29,4.90
2012,01,26,16,30,9.70
2012,01,26,16,31,7.70
2012,01,26,16,32,5.50
2012,01,26,16,33,10.60
2012,01,26,16,34,13.00
2012,01,26,16,35,6.20
2012,01,26,16,36,9.70
2012,01,26,16,37,4.10
2012,01,26,16,38,7.30
2012,01,26,16,39,4.80
2012,01,26,16,40,7.90
2012,01,26,16,41,4.80
2012,01,26,16,42,9.60
2012,01,26,16,43,8.60
2012,01,26,16,44,9.70
2012,01,26,16,45,7.60
2012,01,26,16,46,10.10
2012,01,26,16,47,4.70
2012,01,26,16,48,5.20
2012,01,26,16,49,7.00
2012,01,26,16,50,6.90
2012,01,26,16,51,7.00
2012,01,26,16,52,5.00
2012,01,26,16,53,6.50
2012,01,26,16,54,6.80
2012,01,26,16,55,10.00
2012,01,26,16,56,6.20
2012,01,26,16,57,7.30
2012,01,26,16,58,8.90
2012,01,26,16,59,6.20
2012,01,26,17,00,3.80
2012,01,26,17,01,6.90
2012,01,26,17,02,11.20
2012,01,26,17,03,6.30
2012,01,26,17,04,8.00
2012,01,26,17,05,5.60
2012,01,26,17,06,9.20
2012,01,26,17,07,9.30
2012,01,26,17,08,9.90
2012,01,26,17,09,6.40
2012,01,26,17,10,4.90
2012,01,26,17,11,7.80
2012,01,26,17,12,4.10
2012,01,26,17,13,2.80
2012,01,26,17,14,2.40
2012,01,26,17,15,6.70
2012,01,26,17,16,3.60
2012,01,26,17,17,3.00
2012,01,26,17,18,9.90
2012,01,26,17,19,5.70
2012,01,26,17,20,4.70
2012,01,26,17,21,4.10
2012,01,26,17,22,1.90
2012,01,26,17,23,4.90
2012,01,26,17,24,2.00
2012,01,26,17,25,3.90
2012,01,26,17,26,7.70
2012,01,26,17,27,5.20
2012,01,26,17,28,6.60
2012,01,26,17,29,5.20
2012,01,26,17,30,6.90
2012,01,26,17,31,5.80
2012,01,26,17,32,3.00
2012,01,26,17,33,4.60
2012,01,26,17,34,2.60
2012,01,26,17,35,1.60
2012,01,26,17,36,3.90
2012,01,26,17,37,6.10
2012,01,26,17,38,3.90
2012,01,26,17,39,7.40
2012,01,26,17,40,7.50
2012,01,26,17,41,3.20
2012,01,26,17,42,4.70
2012,01,26,17,43,4.30
2012,01,26,17,44,2.50
2012,01,26,17,45,1.60
2012,01,26,17,46,2.30
2012,01,26,17,47,5.00
2012,01,26,17,48,4.90